| time (UTC) | temp C | wind direction | speed KPH | gust KPH | rain 1hr cm | rain 24hr cm | rain mn cm | humidity % | barometer mb |
| 20260509081506 | 12 | 192 | 0.0 | 3.2 | 0.00 | 0.00 | 0.00 | 75 | 1012.0 |
| 20260509080025 | 11 | 97 | 0.0 | 1.6 | 0.00 | 0.00 | 0.00 | 75 | 1012.0 |
| 20260509074533 | 11 | 162 | 0.0 | 3.2 | 0.00 | 0.00 | 0.00 | 75 | 1012.2 |
| 20260509073022 | 11 | 143 | 0.0 | 0.0 | 0.00 | 0.00 | 0.00 | 74 | 1012.2 |
| 20260509071522 | 12 | 143 | 0.0 | 3.2 | 0.00 | 0.00 | 0.00 | 72 | 1012.3 |
| 20260509070018 | 12 | 191 | 0.0 | 3.2 | 0.00 | 0.00 | 0.00 | 70 | 1012.3 |
| 20260509064516 | 12 | 179 | 0.0 | 0.0 | 0.00 | 0.00 | 0.00 | 69 | 1012.4 |
| 20260509063011 | 12 | 179 | 0.0 | 3.2 | 0.00 | 0.00 | 0.00 | 68 | 1012.7 |
| 20260509061528 | 13 | 179 | 0.0 | 0.0 | 0.00 | 0.00 | 0.00 | 67 | 1012.9 |
| 20260509060026 | 13 | 179 | 0.0 | 3.2 | 0.00 | 0.00 | 0.00 | 64 | 1012.8 |
| 20260509054524 | 14 | 179 | 0.0 | 3.2 | 0.00 | 0.00 | 0.00 | 62 | 1012.9 |
| 20260509053035 | 14 | 165 | 0.0 | 3.2 | 0.00 | 0.00 | 0.00 | 60 | 1013.0 |
| 20260509051524 | 14 | 212 | 0.0 | 6.4 | 0.00 | 0.00 | 0.00 | 61 | 1013.2 |
| 20260509050041 | 14 | 130 | 0.0 | 6.4 | 0.00 | 0.00 | 0.00 | 61 | 1013.3 |
| 20260509044516 | 14 | 179 | 0.0 | 3.2 | 0.00 | 0.00 | 0.00 | 61 | 1013.3 |
| 20260509043026 | 15 | 155 | 0.0 | 3.2 | 0.00 | 0.00 | 0.00 | 57 | 1013.3 |
| 20260509041528 | 15 | 235 | 0.0 | 4.8 | 0.00 | 0.00 | 0.00 | 57 | 1013.1 |
| 20260509040030 | 15 | 187 | 0.0 | 0.0 | 0.00 | 0.00 | 0.00 | 56 | 1013.2 |
| 20260509034528 | 15 | 184 | 0.0 | 3.2 | 0.00 | 0.00 | 0.00 | 55 | 1013.2 |
| 20260509033034 | 16 | 175 | 0.0 | 3.2 | 0.00 | 0.00 | 0.00 | 53 | 1013.3 |
| 20260509031531 | 16 | 181 | 0.0 | 3.2 | 0.00 | 0.00 | 0.00 | 52 | 1013.3 |
| 20260509030022 | 16 | 214 | 0.0 | 3.2 | 0.00 | 0.00 | 0.00 | 54 | 1013.1 |
| 20260509024518 | 16 | 196 | 0.0 | 4.8 | 0.00 | 0.00 | 0.00 | 52 | 1012.8 |
| 20260509023016 | 16 | 229 | 1.6 | 6.4 | 0.00 | 0.00 | 0.00 | 50 | 1013.1 |
| 20260509021516 | 16 | 293 | 0.0 | 4.8 | 0.00 | 0.00 | 0.00 | 51 | 1013.1 |
| 20260509020010 | 16 | 188 | 0.0 | 4.8 | 0.00 | 0.00 | 0.00 | 50 | 1013.0 |
| 20260509014527 | 16 | 224 | 0.0 | 3.2 | 0.00 | 0.00 | 0.00 | 49 | 1013.0 |
| 20260509013028 | 16 | 312 | 1.6 | 3.2 | 0.00 | 0.00 | 0.00 | 48 | 1012.8 |
| 20260509011525 | 16 | 234 | 0.0 | 3.2 | 0.00 | 0.00 | 0.00 | 48 | 1012.6 |
| 20260509010030 | 16 | 226 | 0.0 | 3.2 | 0.00 | 0.00 | 0.00 | 49 | 1012.2 |
| 20260509004521 | 16 | 251 | 0.0 | 3.2 | 0.00 | 0.00 | 0.00 | 47 | 1012.0 |
| 20260509003018 | 16 | 240 | 0.0 | 3.2 | 0.00 | 0.00 | 0.00 | 46 | 1011.7 |
| 20260509001508 | 16 | 245 | 0.0 | 0.0 | 0.00 | 0.00 | 0.00 | 47 | 1011.6 |
| 20260509000007 | 17 | 245 | 0.0 | 3.2 | 0.00 | 0.00 | 0.00 | 45 | 1011.5 |
| 20260508234510 | 17 | 183 | 0.0 | 1.6 | 0.00 | 0.00 | 0.00 | 42 | 1011.4 |
| 20260508233012 | 17 | 240 | 0.0 | 6.4 | 0.00 | 0.00 | 0.00 | 42 | 1011.3 |
| 20260508231508 | 17 | 300 | 0.0 | 4.8 | 0.00 | 0.00 | 0.00 | 40 | 1011.1 |
| 20260508230006 | 18 | 220 | 0.0 | 4.8 | 0.00 | 0.00 | 0.00 | 39 | 1011.0 |
| 20260508224529 | 18 | 174 | 0.0 | 3.2 | 0.00 | 0.00 | 0.00 | 37 | 1011.0 |
| 20260508223013 | 18 | 181 | 0.0 | 4.8 | 0.00 | 0.00 | 0.00 | 37 | 1010.9 |
| 20260508221515 | 18 | 235 | 1.6 | 9.7 | 0.00 | 0.00 | 0.00 | 36 | 1011.0 |
| 20260508220012 | 18 | 237 | 0.0 | 8.0 | 0.00 | 0.00 | 0.00 | 35 | 1010.9 |
| 20260508214522 | 18 | 297 | 1.6 | 8.0 | 0.00 | 0.00 | 0.00 | 35 | 1010.8 |
| 20260508213015 | 20 | 351 | 3.2 | 8.0 | 0.00 | 0.00 | 0.00 | 34 | 1010.8 |
| 20260508211516 | 19 | 321 | 0.0 | 8.0 | 0.00 | 0.00 | 0.00 | 34 | 1010.9 |
| 20260508210005 | 19 | 332 | 3.2 | 16.1 | 0.00 | 0.00 | 0.00 | 33 | 1011.0 |
| 20260508204519 | 20 | 301 | 6.4 | 16.1 | 0.00 | 0.00 | 0.00 | 34 | 1011.1 |
| 20260508203016 | 18 | 305 | 3.2 | 9.7 | 0.00 | 0.00 | 0.00 | 36 | 1011.2 |
| 20260508201518 | 18 | 34 | 1.6 | 12.9 | 0.00 | 0.00 | 0.00 | 37 | 1011.3 |
| 20260508200030 | 19 | 147 | 3.2 | 11.3 | 0.00 | 0.00 | 0.00 | 36 | 1011.3 |
| 20260508194516 | 18 | 266 | 1.6 | 4.8 | 0.00 | 0.00 | 0.00 | 39 | 1011.6 |
| 20260508193016 | 18 | 124 | 1.6 | 16.1 | 0.00 | 0.00 | 0.00 | 36 | 1011.6 |
| 20260508191512 | 18 | 188 | 0.0 | 8.0 | 0.00 | 0.00 | 0.00 | 35 | 1011.7 |
| 20260508190022 | 19 | 270 | 3.2 | 11.3 | 0.00 | 0.00 | 0.00 | 36 | 1011.5 |
| 20260508184526 | 20 | 263 | 3.2 | 17.7 | 0.00 | 0.00 | 0.00 | 34 | 1011.6 |
| 20260508183022 | 19 | 326 | 4.8 | 12.9 | 0.00 | 0.00 | 0.00 | 34 | 1011.8 |
| 20260508181521 | 17 | 318 | 1.6 | 9.7 | 0.00 | 0.00 | 0.00 | 38 | 1012.1 |
| 20260508180020 | 18 | 59 | 1.6 | 11.3 | 0.00 | 0.00 | 0.00 | 38 | 1012.4 |
| 20260508174525 | 17 | 153 | 1.6 | 9.7 | 0.00 | 0.00 | 0.00 | 39 | 1012.7 |
| 20260508173019 | 18 | 219 | 3.2 | 16.1 | 0.00 | 0.00 | 0.00 | 35 | 1012.7 |
| 20260508171528 | 18 | 212 | 4.8 | 14.5 | 0.00 | 0.00 | 0.00 | 34 | 1012.7 |
| 20260508170027 | 18 | 194 | 3.2 | 11.3 | 0.00 | 0.00 | 0.00 | 35 | 1012.8 |
| 20260508164524 | 18 | 240 | 4.8 | 14.5 | 0.00 | 0.00 | 0.00 | 36 | 1012.8 |
| 20260508163026 | 18 | 82 | 3.2 | 12.9 | 0.00 | 0.00 | 0.00 | 39 | 1013.3 |
| 20260508161533 | 17 | 321 | 1.6 | 8.0 | 0.00 | 0.00 | 0.00 | 41 | 1013.4 |
| 20260508160030 | 16 | 28 | 3.2 | 11.3 | 0.00 | 0.00 | 0.00 | 37 | 1013.6 |
| 20260508154524 | 16 | 186 | 1.6 | 9.7 | 0.00 | 0.00 | 0.00 | 41 | 1013.8 |
| 20260508153020 | 16 | 272 | 3.2 | 11.3 | 0.00 | 0.00 | 0.00 | 39 | 1013.9 |
| 20260508151515 | 15 | 160 | 1.6 | 12.9 | 0.00 | 0.00 | 0.00 | 41 | 1013.9 |
| 20260508150020 | 15 | 166 | 0.0 | 6.4 | 0.00 | 0.00 | 0.00 | 44 | 1014.1 |
| 20260508144528 | 15 | 219 | 1.6 | 3.2 | 0.00 | 0.00 | 0.00 | 41 | 1014.2 |
| 20260508143024 | 14 | 183 | 3.2 | 11.3 | 0.00 | 0.00 | 0.00 | 42 | 1014.3 |
| 20260508141515 | 14 | 216 | 1.6 | 8.0 | 0.00 | 0.00 | 0.00 | 42 | 1014.4 |
| 20260508140006 | 13 | 354 | 1.6 | 4.8 | 0.00 | 0.00 | 0.00 | 45 | 1014.5 |
| 20260508134529 | 13 | 306 | 4.8 | 8.0 | 0.00 | 0.00 | 0.00 | 42 | 1014.6 |
| 20260508133021 | 12 | 265 | 1.6 | 3.2 | 0.00 | 0.00 | 0.00 | 45 | 1014.7 |
| 20260508131518 | 12 | 211 | 0.0 | 4.8 | 0.00 | 0.00 | 0.00 | 47 | 1014.6 |
| 20260508130020 | 12 | 311 | 0.0 | 4.8 | 0.00 | 0.00 | 0.00 | 52 | 1014.9 |
| 20260508124514 | 11 | 240 | 1.6 | 4.8 | 0.00 | 0.00 | 0.00 | 60 | 1014.8 |
| 20260508123013 | 11 | 259 | 0.0 | 3.2 | 0.00 | 0.00 | 0.00 | 63 | 1014.7 |
| 20260508121516 | 10 | 206 | 1.6 | 6.4 | 0.00 | 0.00 | 0.00 | 67 | 1014.7 |
| 20260508120006 | 10 | 273 | 0.0 | 3.2 | 0.00 | 0.00 | 0.00 | 73 | 1014.6 |
| 20260508114533 | 9 | 278 | 0.0 | 3.2 | 0.00 | 0.00 | 0.00 | 76 | 1014.4 |
| 20260508113034 | 8 | 261 | 0.0 | 4.8 | 0.00 | 0.00 | 0.00 | 80 | 1014.4 |
| 20260508111525 | 7 | 276 | 0.0 | 3.2 | 0.00 | 0.00 | 0.00 | 85 | 1014.5 |
| 20260508110019 | 6 | 248 | 0.0 | 3.2 | 0.00 | 0.00 | 0.00 | 88 | 1014.4 |
| 20260508104515 | 6 | 248 | 0.0 | 0.0 | 0.00 | 0.00 | 0.00 | 89 | 1013.9 |
| 20260508103013 | 6 | 248 | 0.0 | 0.0 | 0.00 | 0.00 | 0.00 | 88 | 1013.8 |
| 20260508101510 | 6 | 248 | 0.0 | 0.0 | 0.00 | 0.00 | 0.00 | 87 | 1013.7 |
| 20260508100034 | 6 | 248 | 0.0 | 0.0 | 0.00 | 0.00 | 0.00 | 86 | 1013.5 |
| 20260508094525 | 6 | 248 | 0.0 | 0.0 | 0.00 | 0.00 | 0.00 | 85 | 1013.4 |
| 20260508093025 | 6 | 248 | 0.0 | 0.0 | 0.00 | 0.00 | 0.00 | 83 | 1013.3 |
| 20260508091523 | 6 | 248 | 0.0 | 0.0 | 0.00 | 0.00 | 0.00 | 82 | 1013.3 |
| 20260508090025 | 7 | 248 | 0.0 | 0.0 | 0.00 | 0.03 | 0.00 | 79 | 1013.2 |
| 20260508084519 | 7 | 248 | 0.0 | 0.0 | 0.00 | 0.03 | 0.00 | 77 | 1013.1 |
| 20260508083015 | 8 | 248 | 0.0 | 0.0 | 0.00 | 0.03 | 0.00 | 74 | 1012.9 |